Location: Newark
(40.9833°N, 0.0333°W)
Time: 00:07:44
(UTC+00:00)

deb Explorer IX - Pass Details

Date: 01 November 2020
Orbit: 537 x 1105 km, 38.8° (Epoch: 03 December)

Event Time Altitude Azimuth Distance (km) Brightness Sun altitude
Rises 10:45:16 0° 270° (W) 3,798 ? 32.7°
Reaches altitude 10° 10:50:04 10° 241° (WSW) 2,917 ? 33.0°
Maximum altitude 10:52:29 12° 222° (SW) 2,799 ? 33.1°
Drops below altitude 10° 10:54:55 10° 202° (SSW) 2,950 ? 33.2°
Sets 10:59:53 0° 173° (S) 3,895 ? 33.4°
